DW7875 Weather Reports


Display with metric or nautical units.
time (UTC)temp
F
wind
direction
speed
MPH
gust
MPH
rain 1hr
in
rain 24hr
in
rain mn
in
humidity
%
barometer
mb
20260508030105 48 82 0.0 2.0 0.00 0.14 0.14 67 1010.9
20260508024544 47 83 0.0 0.0 0.00 0.14 0.14 66 1010.9
20260508023047 47 83 0.0 3.0 0.00 0.14 0.14 66 1011.0
20260508021542 48 166 0.0 2.0 0.00 0.14 0.14 65 1010.9
20260508020040 48 166 0.0 0.0 0.00 0.14 0.14 64 1010.8
20260508014539 48 166 0.0 0.0 0.00 0.14 0.14 64 1010.7
20260508013038 49 166 0.0 1.0 0.00 0.14 0.14 64 1010.7
20260508011537 49 216 0.0 2.0 0.00 0.14 0.14 63 1010.4
20260508010041 49 216 0.0 1.0 0.00 0.14 0.14 63 1010.3
20260508004533 50 216 0.0 2.0 0.00 0.14 0.14 62 1010.1
20260508003029 51 216 0.0 0.0 0.00 0.14 0.14 60 1010.0
20260508001532 53 216 0.0 0.0 0.00 0.14 0.14 57 1009.8
20260508000025 54 216 0.0 1.0 0.00 0.14 0.14 56 1009.5
20260507234528 55 216 0.0 1.0 0.00 0.14 0.14 53 1009.4
20260507233024 56 216 0.0 2.0 0.00 0.14 0.14 51 1009.1
20260507231523 56 216 1.0 5.0 0.00 0.14 0.14 50 1009.1
20260507230022 57 213 0.0 3.0 0.00 0.14 0.14 49 1009.0
20260507224533 58 207 1.0 5.0 0.00 0.14 0.14 45 1008.8
20260507223022 59 136 0.0 3.0 0.00 0.14 0.14 50 1008.8
20260507221527 60 145 0.0 3.0 0.00 0.14 0.14 44 1008.9
20260507220022 61 145 1.0 3.0 0.00 0.14 0.14 45 1008.8
20260507214521 61 170 1.0 3.0 0.00 0.14 0.14 44 1009.1
20260507213029 61 153 0.0 3.0 0.00 0.14 0.14 45 1009.1
20260507211519 61 165 1.0 3.0 0.00 0.14 0.14 47 1009.0
20260507210040 59 169 1.0 3.0 0.00 0.14 0.14 46 1008.9
20260507204517 59 217 0.0 3.0 0.00 0.14 0.14 47 1009.1
20260507203021 59 148 0.0 3.0 0.00 0.14 0.14 43 1009.3
20260507201518 59 146 0.0 2.0 0.00 0.14 0.14 44 1009.1
20260507200023 59 125 0.0 3.0 0.00 0.14 0.14 43 1009.0
20260507194516 59 340 0.0 3.0 0.00 0.14 0.14 42 1009.5
20260507193024 59 345 0.0 2.0 0.00 0.14 0.14 40 1009.1
20260507191523 60 345 0.0 2.0 0.00 0.14 0.14 45 1009.9
20260507190019 59 349 0.0 3.0 0.00 0.14 0.14 48 1009.6
20260507184513 59 349 0.0 2.0 0.00 0.14 0.14 43 1010.1
20260507183023 59 349 0.0 2.0 0.00 0.14 0.14 47 1010.1
20260507181512 60 351 0.0 2.0 0.00 0.14 0.14 44 1010.3
20260507180011 58 359 0.0 2.0 0.00 0.14 0.14 51 1010.4
20260507174515 56 359 1.0 2.0 0.00 0.14 0.14 52 1010.9
20260507173017 56 359 1.0 3.0 0.00 0.14 0.14 51 1011.0
20260507171510 56 359 0.0 2.0 0.00 0.14 0.14 47 1011.4
20260507170009 57 348 0.0 4.0 0.00 0.14 0.14 47 1011.0
20260507164509 56 37 1.0 3.0 0.00 0.14 0.14 50 1011.2
20260507163012 56 51 1.0 2.0 0.00 0.14 0.14 43 1011.7
20260507161514 56 57 2.0 5.0 0.00 0.14 0.14 40 1011.4
20260507160010 56 296 1.0 7.0 0.00 0.14 0.14 42 1011.8
20260507154507 56 3 2.0 5.0 0.00 0.16 0.14 41 1012.1
20260507153015 56 22 1.0 7.0 0.00 0.16 0.14 47 1012.0
20260507151506 56 68 1.0 8.0 0.00 0.16 0.14 46 1012.0
20260507150004 56 12 3.0 8.0 0.00 0.16 0.14 43 1012.1
20260507144502 56 1 3.0 6.0 0.00 0.18 0.14 42 1012.2
20260507143001 56 23 3.0 7.0 0.00 0.18 0.14 44 1012.3
20260507141620 55 12 2.0 9.0 0.00 0.18 0.14 46 1012.3
20260507140109 55 338 2.0 10.0 0.00 0.18 0.14 52 1012.3
20260507134606 56 49 2.0 8.0 0.00 0.18 0.14 55 1012.3
20260507133054 55 27 2.0 7.0 0.00 0.18 0.14 57 1012.2
20260507131555 55 334 0.0 6.0 0.00 0.18 0.14 59 1012.3
20260507130050 55 1 2.0 6.0 0.00 0.18 0.14 62 1011.9
20260507124549 54 26 1.0 5.0 0.00 0.18 0.14 67 1012.2
20260507123050 54 297 1.0 5.0 0.00 0.18 0.14 73 1012.1
20260507121547 54 18 0.0 5.0 0.00 0.18 0.14 77 1012.3
20260507120047 54 359 0.0 4.0 0.00 0.18 0.14 80 1012.0
20260507114551 53 4 0.0 3.0 0.00 0.18 0.14 80 1012.0
20260507113043 53 1 0.0 3.0 0.00 0.18 0.14 81 1011.8
20260507111552 53 8 1.0 3.0 0.00 0.18 0.14 82 1011.6
20260507110040 53 276 0.0 3.0 0.00 0.18 0.14 82 1011.8
20260507104538 53 20 0.0 6.0 0.00 0.18 0.14 82 1011.5
20260507103036 53 304 1.0 5.0 0.00 0.18 0.14 82 1011.2
20260507101537 53 23 1.0 5.0 0.01 0.18 0.14 82 1011.1
20260507100034 53 4 1.0 7.0 0.01 0.18 0.14 82 1011.1
20260507094534 53 311 1.0 6.0 0.02 0.18 0.14 82 1011.1
20260507093040 54 18 0.0 4.0 0.02 0.18 0.14 83 1011.1
20260507091532 54 18 2.0 4.0 0.01 0.17 0.13 83 1011.0
20260507090026 55 16 2.0 6.0 0.01 0.17 0.13 83 1010.9
20260507084525 55 319 2.0 6.0 0.00 0.16 0.12 83 1010.9
20260507083028 55 23 2.0 5.0 0.00 0.16 0.12 83 1010.9
20260507081530 55 48 2.0 7.0 0.00 0.16 0.12 83 1010.4
20260507080021 56 346 0.0 3.0 0.00 0.16 0.12 84 1010.3
20260507074516 56 352 1.0 6.0 0.00 0.16 0.12 84 1010.0
20260507073015 56 7 2.0 5.0 0.00 0.16 0.12 83 1009.9
20260507071514 56 304 1.0 6.0 0.00 0.16 0.12 83 1009.8
20260507070013 57 65 2.0 9.0 0.00 0.16 0.12 82 1009.8
20260507064508 57 1 2.0 11.0 0.01 0.16 0.12 82 1009.2
20260507063006 58 347 1.0 6.0 0.04 0.16 0.12 83 1008.6
20260507061506 58 4 1.0 3.0 0.09 0.16 0.12 80 1008.7
20260507060003 59 16 0.0 4.0 0.12 0.16 0.12 78 1009.4
20260507054609 59 27 0.0 2.0 0.11 0.15 0.11 75 1009.7
20260507053056 60 4 2.0 4.0 0.08 0.12 0.08 72 1008.9
20260507051554 61 213 0.0 5.0 0.03 0.07 0.03 68 1009.7
20260507050047 62 10 1.0 6.0 0.00 0.04 0.00 66 1009.7
20260507044544 64 11 2.0 8.0 0.00 0.04 0.00 66 1009.6
20260507043042 65 309 0.0 2.0 0.00 0.04 0.00 71 1009.5
20260507041550 64 314 1.0 3.0 0.00 0.04 0.00 74 1009.1
20260507040034 64 46 0.0 2.0 0.00 0.04 0.00 78 1009.0
20260507034536 63 276 0.0 2.0 0.00 0.04 0.04 78 1008.8
20260507033035 63 286 0.0 0.0 0.00 0.04 0.04 77 1008.6
20260507031533 63 286 0.0 0.0 0.00 0.04 0.04 76 1008.5